sat.trackr.live / text

‹ back to catalog

STARLINK-32727

NORAD 62828 · 2025-018Y

PAYLOAD ACTIVE UNKNOWN

§ Identity

Operator
Country
US
Launch date
2025-01-24
Launch site
AFWTR
Launch vehicle
Mass (kg)
RCS (m²)

Purposes: comms

External: N2YO · Heavens-Above · Gunter

§ Orbital elements

Epoch: 2026-05-24T17:56:00.150144Z

Period
93.85 min
Inclination
53.1594°
Eccentricity
0.0000759
Mean motion
15.34396982 rev/d
Perigee alt
462.2 km
Apogee alt
463.2 km
Semi-major
6,840.8 km
B*
5.9766e-4
RAAN
312.7310°
Arg perigee
77.7858°
Mean anomaly
282.3230°
Rev number
7,581

§ Raw data

STARLINK-327271 62828U 25018Y   26144.74722396  .00019868  00000+0  59766-3 0  99962 62828  53.1594 312.7310 0000759  77.7858 282.3230 15.34396982 75816

JSON: /api/v1/satellites/62828 · /tle

For live sub-satellite position, see the globe view (requires WebGL).

§ Visibility from observer

Set your observer location to see the next 7 days of passes ≥ 10°. The values pass through the URL so the page stays shareable.

No JS? Fill the form by hand. The geolocation button needs JavaScript.